Location: ????????
(37.6846°N, 24.0673°E)
Time: 11:55:17
(UTC+00:00)

Cosmos 1666 - Pass Details

Date: 14 July 2020
Orbit: 497 x 521 km, 82.5° (Epoch: 09 August)

Event Time Altitude Azimuth Distance (km) Brightness Sun altitude
Exits shadow 01:13:14 31° 286° (WNW) 917 3.7 -19.3°
Drops below altitude 10° 01:16:30 10° 345° (NNW) 1,722 5.8 -18.9°
Sets 01:18:48 0° 356° (N) 2,607 7.0 -18.6°
